Regional Weather Roundup
Issued by NWS

Home | Current Version | Previous Version | Graphics & Text | Print | Product List | Glossary On
Versions: 1 2 3 4 5 6 7 8 9 10 11 12 13 14 15 16 17 18 19 20 21 22 23 24 25 26 27 28 29 30 31 32 33 34 35 36 37 38 39 40 41 42 43 44 45 46 47 48 49 50
000
ASUS43 KMKX 301900
RWRWI

WISCONSIN REGIONAL WEATHER ROUNDUP
NATIONAL WEATHER SERVICE MILWAUKEE/SULLIVAN WI
200 PM CDT THU JUL 30 2015

NOTE: "FAIR" INDICATES FEW OR NO CLOUDS BELOW 12,000 FEET WITH NO
SIGNIFICANT WEATHER AND/OR OBSTRUCTIONS TO VISIBILITY.

WIZ001-002-006>008-014>016-023>028-302000-
NORTHWEST WISCONSIN

CITY           SKY/WX    TMP DP  RH WIND       PRES   REMARKS
SUPERIOR ARPT  MOSUNNY   82  56  42 NW14G28   29.93F HX  81
ASHLAND        MOSUNNY   81  58  45 W10G21    29.92F HX  81
HAYWARD        MOSUNNY   80  56  43 NW8       29.98F HX  80
SIREN          SUNNY     81  53  37 NW17G24   30.01S HX  80
CUMBERLAND     MOSUNNY   77  54  44 W15G28    30.02S
RICE LAKE      MOSUNNY   79  57  47 W12G20    30.03S HX  80
CHETEK         MOSUNNY   80  59  49 W7        30.01F HX  80
LADYSMITH      MOSUNNY   81  57  44 W17G23    30.02S HX  81
EAU CLAIRE     MOSUNNY   83  56  39 NW17G28   30.01F HX  82
MENOMONIE      SUNNY     82  54  38 W17       30.03S HX  81
NEW RICHMOND   MOSUNNY   80  56  43 W10G23    30.04S HX  81
OSCEOLA        MOSUNNY   80  56  43 W14       30.06S HX  80
$$

WIZ003>005-009-010-017-018-302000-
NORTH CENTRAL WISCONSIN

CITY           SKY/WX    TMP DP  RH WIND       PRES   REMARKS
MANITOWISH WTR MOSUNNY   77  55  45 NW9G22    29.96F
ARBOR VITAE    SUNNY     77  53  43 NW14G21   29.97F
WOODRUFF       SUNNY     77  53  43 NW14G21   29.97F
RHINELANDER    MOSUNNY   82  52  35 W14G23    29.98S HX  81
EAGLE RIVER    SUNNY     76  46  33 NW16G22   29.96S
LAND O LAKES   MOSUNNY   78  45  30 W13G21    29.97S
PHILLIPS       MOSUNNY   78  56  48 NW10      29.99S
TOMAHAWK       MOSUNNY   78  53  41 W15       29.99S
MEDFORD        MOSUNNY   79  58  49 W15G25    30.01S HX  80
MERRILL        NOT AVBL
$$

WIZ029-030-035-036-043>047-302000-
CENTRAL WISCONSIN

CITY           SKY/WX    TMP DP  RH WIND       PRES   REMARKS
WAUSAU         MOSUNNY   84  53  34 NW16G26   29.97S HX  82
MOSINEE        MOSUNNY   79  57  47 W14       30.01S HX  80
MARSHFIELD     PTSUNNY   83  54  36 NW15      30.01S HX  82
STEVENS POINT  MOSUNNY   80  55  42 W15G25    30.00S HX  80
WAUPACA        MOSUNNY   85  54  34 W16G23    29.98S HX  83
WAUTOMA        NOT AVBL
WISC RAPIDS    MOSUNNY   86  50  28 NW17G26   30.01F HX  84
CAMP DOUGLAS   NOT AVBL
$$

WIZ011>013-019>022-031-037>040-048>050-302000-
NORTHEAST WISCONSIN

CITY           SKY/WX    TMP DP  RH WIND       PRES   REMARKS
ANTIGO         MOSUNNY   78  54  42 NW15G25   29.98S
SHAWANO        SUNNY     83  52  33 W10G23    29.95S HX  82
OCONTO         MOSUNNY   85  53  33 W16G26    29.92S HX  83
STURGEON BAY   MOSUNNY   82  55  39 W17G23    29.94S HX  82
GREEN BAY      PTSUNNY   85  57  38 W23G31    29.94F HX  84
MANITOWOC      NOT AVBL
APPLETON       PTSUNNY   82  52  34 W20G25    29.98F HX  81
CLINTONVILLE   MOSUNNY   84  50  30 W16G24    29.96S HX  82
OSHKOSH        MOSUNNY   85  54  34 W17G30    29.97F HX  83
$$

WIZ032>034-041-042-053>061-302000-
SOUTHWEST WISCONSIN

CITY           SKY/WX    TMP DP  RH WIND       PRES   REMARKS
LA CROSSE      SUNNY     86  56  35 NW15G24   30.03F HX  85
SPARTA         SUNNY     84  49  29 W17G23    30.04F HX  82
VIROQUA        SUNNY     81  55  40 W14       30.08F HX  81
BOSCOBEL       SUNNY     89  54  30 W14G22    30.05F HX  87
PRAIRIE DU CHI SUNNY     88  50  27 W15G21    30.06F HX  85
PLATTEVILLE    SUNNY     84  56  38 W12G20    30.09F HX  83
$$

WIZ056-057-062-063-064-067-068-302000-
SOUTH CENTRAL WISCONSIN

CITY           SKY/WX    TMP DP  RH WIND       PRES   REMARKS
REEDSBURG      SUNNY     86  55  35 W16       30.04S HX  84
BARABOO/DELLS  SUNNY     85  47  25 W15G23    30.04S HX  83
LONE ROCK      NOT AVBL
MINERAL POINT  SUNNY     84  50  30 W15G21    30.09S HX  82
MADISON        MOSUNNY   85  53  33 W14G23    30.03F HX  83
MIDDLETON      MOSUNNY   87  48  25 W14G26    30.05F HX  84
WATERTOWN      MOSUNNY   83  59  43 W15G23    30.03S HX  83
MONROE         SUNNY     82  52  34 W12G23    30.08S HX  81
JANESVILLE     MOSUNNY   88  50  27 W16G22    30.05F HX  85
$$

WIZ051-052-058>065-066-070>072-302000-
SOUTHEAST WISCONSIN

CITY           SKY/WX    TMP DP  RH WIND       PRES   REMARKS
MILWAUKEE      MOSUNNY   86  51  29 NW25G33   30.01F HX  84
WAUKESHA       MOSUNNY   82  54  36 W23G29    30.04S HX  81
MILWAUKEE/TIMM MOSUNNY   84  52  32 MISG      30.02F HX  82
RACINE         MOSUNNY   87  54  32 NW15G21   30.03F HX  85
BURLINGTON     SUNNY     83  51  32 W18       30.04F HX  82
KENOSHA        MOSUNNY   85  58  39 W15G29    30.03F HX  84
FOND DU LAC    MOSUNNY   87  55  33 NW24G30   29.99F HX  85
SHEBOYGAN      PTSUNNY   84  56  38 W15G24    29.97F HX  83
WEST BEND      MOSUNNY   82  52  34 W17       30.00F HX  81
JUNEAU         PTSUNNY   82  58  44 W13G23    30.03F HX  81
$$

LSZ147-162-302000-
LAKE SUPERIOR

STATION/POSITION TIME  TEMP    WIND        PRES    WAVE
                       AIR SEA DIR/SP/G            HT/PER
                 (UTC) (F)     (DEG/KT/KT) (MB)    (FT/S)
W MID LAKE BUOY  1750   58 52  240/ 14/ 14 1011.9S   3/ 5
DEVILS ISLAND    1800   67     240/ 18/ 20 1012.7F
PORT WING        1800   77     250/ 12/ 17 1013.5F
SAXON HARBOR     1840   77                 1013.2F
$$

LMZ867-665-643>646-302000-
LAKE MICHIGAN

STATION/POSITION TIME  TEMP    WIND        PRES    WAVE
                       AIR SEA DIR/SP/G            HT/PER
                 (UTC) (F)     (DEG/KT/KT) (MB)    (FT/S)
CHAMBERS ISLAND  1800   79     250/  2/ 10 1011.9F
S GREEN BAY BUOY 1800   72 66  270/ 12/ 16 1014.6
N MID LAKE BUOY  1750   71 68  240/ 12/ 14 1011.1F   3/ 5
NORTHPORT PIER   1800   80     300/ 10/ 15 1011.9S
SISTER BAY       1844   81     300/ 13/ 15   N/A
ALGOMA LAKESHORE 1812          340/ 11/ 18   N/A
KEWAUNEE LAKESHO 1800   81     260/ 16/ 22 1013.2S
SHEBOYGAN LAKESH 1800   81     300/ 19/ 26 1015.1F
PORT WASHINGTON  1840   86     280/ 15/ 20 1015.9F
ATWATER BUOY     1800   76 58  270/ 12/ 16 1017.6F
MILWAUKEE LAKESH 1800   83     280/ 17/ 27   N/A
KENOSHA   LAKESH 1800   83     300/ 16/ 23 1015.9F
$$

TC  - TEMPERATURE IN CELSIUS
VSB - VISIBILITY IN STATUTE MILES
WCI - WIND CHILL INDEX
HX  - HEAT INDEX



USA.gov is the U.S. government's official web portal to all federal, state and local government web resources and services.